Regional Weather Roundup
Issued by NWS

Home | Current Version | Previous Version | Graphics & Text | Print | Product List | Glossary On
Versions: 1 2 3 4 5 6 7 8 9 10 11 12 13 14 15 16 17 18 19 20 21 22 23 24 25 26 27 28 29 30 31 32 33 34 35 36 37 38 39 40 41 42 43 44 45 46 47 48 49 50
000
ASUS43 KLOT 020210
RWRIL

ILLINOIS REGIONAL WEATHER ROUNDUP
NATIONAL WEATHER SERVICE CHICAGO/ROMEOVILLE IL
900 PM CDT FRI AUG 01 2014

NOTE: "FAIR" INDICATES FEW OR NO CLOUDS BELOW 12,000 FEET WITH NO
SIGNIFICANT WEATHER AND/OR OBSTRUCTIONS TO VISIBILITY.

* THESE STATIONS ARE NOT UNDER NWS QUALITY CONTROL. THEY ALSO MAY NOT
  REPORT WEATHER SUCH AS PRECIPITATION OR FOG.

ILZ001-002-007-009-015-016-024-020300-
NORTHWEST ILLINOIS

CITY           SKY/WX    TMP DP  RH WIND       PRES   REMARKS
MOLINE         PTCLDY    70  65  84 SE8       30.08R
STERLING*      MOCLDY    70  61  73 SW3       30.09S
SAVANNA*       PTCLDY    71  64  78 CALM      30.07S
$$

ILZ003-004-008-010-011-017-018-020300-
NORTH CENTRAL ILLINOIS

CITY           SKY/WX    TMP DP  RH WIND       PRES   REMARKS
ROCKFORD       TSTM      63  58  83 E17       30.16R
FREEPORT*      PTCLDY    70  58  66 E10       30.14R
ROCHELLE*      TSTM      64  60  88 N7        30.15R
DE KALB*       CLOUDY    63  60  90 S6        30.12R
PERU*          MOCLDY    67  62  81 NE5       30.11R
$$

ILZ005-006-012>014-019>023-020300-
NORTHEAST ILLINOIS

CITY           SKY/WX    TMP DP  RH WIND       PRES   REMARKS
CHICAGO-OHARE  MOCLDY    70  58  65 NW7       30.10R
CHICAGO-MIDWAY CLOUDY    70  60  70 NW3       30.09R
AURORA         CLOUDY    66  61  84 CALM      30.11R
LANSING*       MOCLDY    65  59  82 SE3       30.10R
JOLIET*        CLOUDY    64  62  94 CALM      30.10R FOG
WAUKEGAN       CLOUDY    65  57  75 NW8       30.13R THUNDER
DUPAGE AIRPORT MOCLDY    68  60  75 CALM      30.11R
KANKAKEE*      CLOUDY    64  62  93 CALM      30.10R
WHEELING       MOCLDY    72  56  57 NW9       30.13R
MORRIS*        CLOUDY    65  64  99 NW3       30.10R
ROMEOVILLE*    CLOUDY    65  62  91 NW6       30.10R
NORTHERLY ISL    N/A     72  57  59 W8          N/A
$$

LMZ740>746-020300-
SOUTHERN LAKE MICHIGAN

STATION/POSITION SKY/WX   TEMP    WIND        PRES    VSBY  WAVE
                          AIR SEA DIR/SP/G                  HT/PER
                          (F)     (DEG/KT/KT) (MB)    (MI)  (FT/S)
SOUTHERN BUOY              67 65  240/  4/  4 1019.0R         0
WAUKEGAN HARBOR            71     360/ 16/ 20   N/A
HARRISON CRIB              72     260/  9/ 12   N/A
BURNHAM HARBOR             71     280/  6/ 11   N/A
CALUMET HARBOR             71     230/  4/  5 1017.6R
BURNS HARBOR               72     170/  3/  7   N/A
MICHIGAN CITY              72     160/  4/  6   N/A
MICHIGAN CITY 6N           70 69  200/  4/  6   N/A           0
ST. JOSEPH                 69 70   CALM  /  2   N/A           0
$$

ILZ025>027-034>036-040-047-049-050-058-095>099-020300-
WEST-CENTRAL ILLINOIS

CITY           SKY/WX    TMP DP  RH WIND       PRES   REMARKS
QUINCY         CLEAR     69  62  78 S5        30.08R
GALESBURG*     MOCLDY    65  61  88 CALM      30.09F
MACOMB*        MOCLDY    64  62  94 S5        30.12F
JACKSONVILLE*  PTCLDY    66  64  92 NE3       30.11R
PITTSFIELD*    PTCLDY    66  63  90 CALM      30.10R
$$

ILZ028>032-037-038-041>044-048-051>054-059>061-020300-
CENTRAL ILLINOIS

CITY           SKY/WX    TMP DP  RH WIND       PRES   REMARKS
PONTIAC        CLOUDY    64  64 100 CALM      30.08S
DECATUR        MOCLDY    64  61  90 N5        30.09S
PEORIA         CLOUDY    66  63  90 CALM      30.10S FOG
LACON*         CLOUDY    66  61  83 SW3       30.08F
LINCOLN*       MOCLDY    68  61  78 CALM      30.07S
SPRINGFIELD    MOCLDY    66  63  90 N6        30.09R
TAYLORVILLE    MOCLDY    63  59  88 CALM      30.08R
$$

ILZ033-039-045-046-055>057-062-063-020300-
EAST-CENTRAL ILLINOIS

CITY           SKY/WX    TMP DP  RH WIND       PRES   REMARKS
CHAMPAIGN      MOCLDY    65  62  90 N5        30.10R
DANVILLE*      RAIN      65  63  93 CALM      30.06S
RANTOUL*       MOCLDY    66  61  82 CALM      30.10S
MATTOON          N/A     65  65 100 N5        30.08S
PARIS*         CLOUDY    65  63  92 CALM      30.10S THUNDER
$$

ILZ079-100>102-020300-
SOUTHWEST ILLINOIS

CITY           SKY/WX    TMP DP  RH WIND       PRES   REMARKS
ALTON          MOCLDY    68  66  94 E5        30.09R
BELLEVILLE     CLOUDY    67  65  94 CALM      30.07S
CAHOKIA*       CLOUDY    69  65  86 E3        30.08R
SPARTA*        CLOUDY    66  63  88 CALM      30.09R
$$

ILZ064>066-069>071-074>076-080>082-084>086-088>090-092>094-020300-
SOUTH-CENTRAL ILLINOIS

CITY           SKY/WX    TMP DP  RH WIND       PRES   REMARKS
CARBONDALE     CLOUDY    71  60  68 N7        30.07R
CAIRO*         PTCLDY    74  66  76 CALM      30.04R
EFFINGHAM*     RAIN      63  59  85 CALM      30.07F
MARION         MOCLDY    68  63  83 E16G24    30.07R
MT. VERNON     CLOUDY    66  59  77 N5        30.08R
CENTRALIA*     CLOUDY    64  61  88 CALM      30.07S
SALEM*         CLOUDY    68  63  85 NE5       30.07F
METROPOLIS*    PTCLDY    71  64  77 CALM      30.04R
$$

ILZ067-068-072-073-078-083-087-091-020300-
SOUTHEAST ILLINOIS

CITY           SKY/WX    TMP DP  RH WIND       PRES   REMARKS
LAWRENCEVILLE  MOCLDY    70  63  78 N15       30.07S
FLORA*         MOCLDY    65  63  93 E3        30.07F
FAIRFIELD*     CLOUDY    70  63  78 N7        30.06F
HARRISBURG*    PTCLDY    74  65  74 N5        30.06R
ROBINSON*      CLOUDY    68  65  91 N9        30.09F THUNDER
CARMI*         PTCLDY    73  64  73 N13G22    30.07R
$$

ABBREVIATIONS USED IN REMARKS
   TC - TEMPERATURE IN CELSIUS
  WCI - WIND CHILL INDEX
   HX - HEAT INDEX
  VSB - VISIBILITY
$$




USA.gov is the U.S. government's official web portal to all federal, state and local government web resources and services.